KC2DUX Weather Reports


Display with metric or nautical units.
time (UTC)temp
F
wind
direction
speed
MPH
gust
MPH
rain 1hr
in
rain 24hr
in
rain mn
in
humidity
%
barometer
mb
20210417042149 51 328 2.0 5.0 0.00 0.00 0.00 27 1007.1
20210417041550 52 323 1.0 5.0 0.00 0.00 0.00 27 1007.2
20210417041032 51 323 2.0 5.0 0.00 0.00 0.00 27 1007.3
20210417040525 52 320 0.0 4.0 0.00 0.00 0.00 25 1007.3
20210417040032 52 320 1.0 5.0 0.00 0.00 0.00 26 1007.3
20210417035658 52 320 1.0 5.0 0.00 0.00 0.00 26 1007.2
20210417035144 52 350 0.0 3.0 0.00 0.00 0.00 26 1007.2
20210417034520 52 350 0.0 4.0 0.00 0.00 0.00 28 1007.2
20210417034022 52 350 1.0 4.0 0.00 0.00 0.00 29 1007.2
20210417033516 52 350 1.0 4.0 0.00 0.00 0.00 31 1007.2
20210417033041 52 349 0.0 4.0 0.00 0.00 0.00 34 1007.2
20210417032626 52 350 2.0 5.0 0.00 0.00 0.00 35 1007.1
20210417032022 52 350 1.0 5.0 0.00 0.00 0.00 37 1007.1
20210417031506 53 350 2.0 6.0 0.00 0.00 0.00 39 1007.0
20210417031103 53 350 1.0 6.0 0.00 0.00 0.00 40 1007.0
20210417030613 53 348 2.0 5.0 0.00 0.00 0.00 42 1007.0
20210417030151 53 339 2.0 5.0 0.00 0.00 0.00 44 1007.0
20210417025754 54 336 2.0 6.0 0.00 0.00 0.00 45 1007.0
20210417025325 54 304 2.0 11.0 0.00 0.00 0.00 45 1007.0
20210417024650 54 311 2.0 11.0 0.00 0.00 0.00 45 1006.9
20210417024103 54 269 4.0 11.0 0.00 0.00 0.00 44 1006.9
20210417023558 54 298 3.0 11.0 0.00 0.00 0.00 41 1006.9
20210417023154 54 309 4.0 10.0 0.00 0.00 0.00 40 1006.9
20210417022759 54 267 3.0 9.0 0.00 0.00 0.00 39 1006.9
20210417022348 54 272 3.0 13.0 0.00 0.00 0.00 39 1006.9
20210417021707 54 235 3.0 13.0 0.00 0.00 0.00 39 1006.9
20210417021044 54 288 4.0 11.0 0.00 0.00 0.00 39 1006.9
20210417020556 54 284 4.0 11.0 0.00 0.00 0.00 40 1006.9
20210417020114 54 255 2.0 9.0 0.00 0.00 0.00 41 1006.9
20210417015828 54 280 2.0 13.0 0.00 0.00 0.00 41 1006.9
20210417015240 54 261 3.0 9.0 0.00 0.00 0.00 41 1006.9
20210417014630 54 245 4.0 10.0 0.00 0.00 0.00 41 1006.8
20210417014033 54 261 3.0 10.0 0.00 0.00 0.00 41 1006.8
20210417013534 54 254 3.0 10.0 0.00 0.00 0.00 41 1006.8
20210417013159 54 247 2.0 10.0 0.00 0.00 0.00 41 1006.8
20210417012924 54 258 3.0 10.0 0.00 0.00 0.00 42 1006.7
20210417012440 54 263 5.0 10.0 0.00 0.00 0.00 42 1006.7
20210417011527 54 282 4.0 9.0 0.00 0.00 0.00 43 1006.7
20210417011036 54 255 4.0 11.0 0.00 0.00 0.00 44 1006.7
20210417010535 54 248 4.0 11.0 0.00 0.00 0.00 45 1006.6
20210417010153 54 243 3.0 13.0 0.00 0.00 0.00 46 1006.6
20210417005906 54 255 3.0 9.0 0.00 0.00 0.00 46 1006.5
20210417005342 55 242 3.0 9.0 0.00 0.00 0.00 46 1006.4
20210417004545 54 281 4.0 11.0 0.00 0.00 0.00 46 1006.3
20210417004046 55 260 4.0 11.0 0.00 0.00 0.00 46 1006.3
20210417003530 55 261 5.0 10.0 0.00 0.00 0.00 46 1006.2
20210417003035 55 250 4.0 10.0 0.00 0.00 0.00 46 1006.1
20210417002821 55 277 4.0 13.0 0.00 0.00 0.00 46 1006.1
20210417002223 54 251 5.0 13.0 0.00 0.00 0.00 46 1006.0
20210417001535 54 240 6.0 12.0 0.00 0.00 0.00 46 1005.8
20210417001023 54 300 5.0 16.0 0.00 0.00 0.00 45 1005.8
20210417000618 54 279 7.0 16.0 0.00 0.00 0.00 45 1005.6
20210417000128 54 221 5.0 14.0 0.00 0.00 0.00 44 1005.5
20210416235913 54 313 6.0 14.0 0.00 0.00 0.00 43 1005.5
20210416235451 54 246 4.0 11.0 0.00 0.00 0.00 44 1005.4
20210416234814 55 263 3.0 16.0 0.00 0.00 0.00 45 1005.2
20210416234109 55 238 5.0 16.0 0.00 0.00 0.00 46 1005.1
20210416233555 55 268 6.0 14.0 0.00 0.00 0.00 46 1005.1
20210416233230 55 241 7.0 14.0 0.00 0.00 0.00 46 1005.0
20210416232846 55 267 4.0 11.0 0.00 0.00 0.00 47 1004.9
20210416232427 55 248 5.0 12.0 0.00 0.00 0.00 47 1004.9
20210416231559 55 263 5.0 14.0 0.00 0.00 0.00 47 1004.8
20210416231112 55 273 2.0 12.0 0.00 0.00 0.00 48 1004.7
20210416230555 55 274 6.0 15.0 0.00 0.00 0.00 48 1004.7
20210416230240 55 250 7.0 15.0 0.00 0.00 0.00 48 1004.6
20210416225942 55 270 7.0 14.0 0.00 0.00 0.00 48 1004.6
20210416225340 56 261 7.0 15.0 0.00 0.00 0.00 48 1004.6
20210416224631 56 254 7.0 15.0 0.00 0.00 0.00 48 1004.5
20210416224043 56 257 6.0 14.0 0.00 0.00 0.00 48 1004.5
20210416223538 57 242 4.0 18.0 0.00 0.00 0.00 47 1004.5
20210416223105 57 194 7.0 20.0 0.00 0.00 0.00 47 1004.3
20210416222922 57 305 10.0 20.0 0.00 0.00 0.00 47 1004.3
20210416222448 57 306 7.0 17.0 0.00 0.00 0.00 46 1004.3
20210416221538 57 285 5.0 16.0 0.00 0.00 0.00 47 1004.2
20210416221047 57 290 8.0 16.0 0.00 0.00 0.00 46 1004.1
20210416220533 57 296 5.0 21.0 0.00 0.00 0.00 47 1004.2
20210416220130 57 269 8.0 22.0 0.00 0.00 0.00 46 1004.1
20210416215924 57 223 8.0 22.0 0.00 0.00 0.00 47 1004.2
20210416215441 56 252 4.0 19.0 0.00 0.00 0.00 47 1004.3
20210416214550 56 261 5.0 19.0 0.00 0.00 0.00 47 1004.2
20210416214026 56 254 6.0 19.0 0.00 0.00 0.00 48 1004.3
20210416213526 56 244 8.0 17.0 0.00 0.00 0.00 47 1004.3
20210416213028 56 255 7.0 17.0 0.00 0.00 0.00 47 1004.2
20210416212813 57 291 8.0 17.0 0.00 0.00 0.00 47 1004.2
20210416212400 57 229 8.0 20.0 0.00 0.00 0.00 47 1004.0
20210416211531 57 271 9.0 26.0 0.00 0.00 0.00 47 1004.0
20210416211018 57 221 10.0 26.0 0.00 0.00 0.00 46 1004.0
20210416210519 57 271 6.0 19.0 0.00 0.00 0.00 46 1003.9
20210416210033 57 245 8.0 19.0 0.00 0.00 0.00 46 1003.9
20210416205702 58 244 8.0 17.0 0.00 0.00 0.00 46 1003.9
20210416205056 57 188 3.0 19.0 0.00 0.00 0.00 46 1004.0
20210416204512 57 275 8.0 19.0 0.00 0.00 0.00 45 1003.9
20210416204022 57 294 5.0 18.0 0.00 0.00 0.00 46 1004.0
20210416203511 56 271 5.0 18.0 0.00 0.00 0.00 46 1004.0
20210416203100 56 277 8.0 18.0 0.00 0.00 0.00 46 1004.0
20210416202817 56 254 8.0 20.0 0.00 0.00 0.00 47 1004.0
20210416202349 55 331 8.0 20.0 0.00 0.00 0.00 47 1004.0
20210416201901 55 315 5.0 11.0 0.00 0.00 0.00 47 1004.1
20210416201106 55 246 4.0 15.0 0.00 0.00 0.00 47 1004.1
20210416200605 55 293 5.0 15.0 0.00 0.00 0.00 47 1004.2
20210416200148 54 220 6.0 18.0 0.00 0.00 0.00 47 1004.2
20210416195957 54 264 8.0 18.0 0.00 0.00 0.00 47 1004.3
20210416195633 55 221 8.0 19.0 0.00 0.00 0.00 47 1004.4
20210416194840 55 286 5.0 19.0 0.00 0.00 0.00 47 1004.3
20210416194109 55 254 6.0 17.0 0.00 0.00 0.00 47 1004.4
20210416193615 55 265 8.0 17.0 0.00 0.00 0.00 47 1004.5
20210416193356 54 246 4.0 17.0 0.00 0.00 0.00 47 1004.4
20210416193155 54 173 7.0 18.0 0.00 0.00 0.00 47 1004.5
20210416192926 54 252 7.0 17.0 0.00 0.00 0.00 47 1004.5
20210416191957 55 219 7.0 23.0 0.00 0.00 0.00 47 1004.4
20210416191052 54 317 8.0 23.0 0.00 0.00 0.00 47 1004.6
20210416190550 54 287 9.0 18.0 0.00 0.00 0.00 47 1004.5
20210416190149 54 281 6.0 20.0 0.00 0.00 0.00 47 1004.6
20210416185725 54 251 6.0 20.0 0.00 0.00 0.00 47 1004.6
20210416185042 54 190 7.0 20.0 0.00 0.00 0.00 47 1004.7
20210416184601 55 254 10.0 19.0 0.00 0.00 0.00 46 1004.6
20210416184039 55 229 7.0 18.0 0.00 0.00 0.00 46 1004.7
20210416183533 54 284 8.0 24.0 0.00 0.00 0.00 47 1004.5
20210416183118 55 226 10.0 24.0 0.00 0.00 0.00 46 1004.7
20210416182854 54 234 7.0 20.0 0.00 0.00 0.00 46 1004.7
20210416182437 54 277 8.0 20.0 0.00 0.00 0.00 46 1004.8
20210416181607 54 257 7.0 22.0 0.00 0.00 0.00 47 1004.7
20210416181037 54 317 9.0 22.0 0.00 0.00 0.00 47 1004.8
20210416180535 54 272 7.0 19.0 0.00 0.00 0.00 47 1004.8
20210416180039 53 281 7.0 21.0 0.00 0.00 0.00 47 1004.8
20210416175729 54 231 7.0 18.0 0.00 0.00 0.00 47 1004.8
20210416175118 54 262 6.0 18.0 0.00 0.00 0.00 46 1004.9
20210416174541 54 321 8.0 19.0 0.00 0.00 0.00 46 1004.9
20210416174030 54 240 7.0 19.0 0.00 0.00 0.00 46 1005.0
20210416173516 54 360 5.0 18.0 0.00 0.00 0.00 46 1004.9
20210416173032 54 242 9.0 19.0 0.00 0.00 0.00 46 1004.9
20210416172814 53 217 10.0 24.0 0.00 0.00 0.00 47 1004.9
20210416172301 52 244 8.0 17.0 0.00 0.00 0.00 47 1005.0
20210416171513 52 262 3.0 20.0 0.00 0.00 0.00 47 1005.0
20210416171020 53 290 7.0 20.0 0.00 0.00 0.00 47 1005.2
20210416170522 53 281 6.0 16.0 0.00 0.00 0.00 46 1005.1
20210416170301 53 247 8.0 18.0 0.00 0.00 0.00 46 1005.1
20210416165904 53 225 4.0 21.0 0.00 0.00 0.00 46 1005.1
20210416165420 52 228 9.0 21.0 0.00 0.00 0.00 47 1005.2
20210416164712 52 251 8.0 15.0 0.00 0.00 0.00 47 1005.2
20210416164102 52 280 8.0 19.0 0.00 0.00 0.00 47 1005.4
20210416163559 52 260 6.0 19.0 0.00 0.00 0.00 47 1005.4
20210416163323 52 276 10.0 17.0 0.00 0.00 0.00 47 1005.4
20210416162725 53 269 6.0 21.0 0.00 0.00 0.00 46 1005.4
20210416162233 53 273 8.0 21.0 0.00 0.00 0.00 46 1005.6
20210416161555 53 319 8.0 18.0 0.00 0.00 0.00 46 1005.6
20210416161045 52 237 4.0 18.0 0.00 0.00 0.00 46 1005.6
20210416160556 53 240 9.0 18.0 0.00 0.00 0.00 46 1005.7
20210416160109 53 296 6.0 15.0 0.00 0.00 0.00 46 1005.8
20210416155900 52 350 4.0 18.0 0.00 0.00 0.00 46 1005.8
20210416155237 52 300 8.0 18.0 0.00 0.00 0.00 46 1005.9
20210416154612 52 293 7.0 19.0 0.00 0.00 0.00 45 1005.9
20210416154042 52 329 8.0 19.0 0.00 0.00 0.00 45 1005.9
20210416153548 52 261 6.0 14.0 0.00 0.00 0.00 45 1006.1
20210416153136 52 274 3.0 16.0 0.00 0.00 0.00 44 1006.1
20210416152722 52 24 5.0 16.0 0.00 0.00 0.00 43 1006.1
20210416152225 51 296 3.0 18.0 0.00 0.00 0.00 43 1006.2
20210416151533 50 268 4.0 13.0 0.00 0.00 0.00 43 1006.3
20210416151110 50 232 4.0 14.0 0.00 0.00 0.00 45 1006.2
20210416150533 50 286 4.0 18.0 0.00 0.00 0.00 46 1006.2
20210416150255 50 26 4.0 18.0 0.00 0.00 0.00 46 1006.3
20210416145932 51 304 6.0 17.0 0.00 0.00 0.00 46 1006.2
20210416145709 51 279 7.0 16.0 0.00 0.00 0.00 46 1006.2
20210416144530 51 270 4.0 21.0 0.00 0.00 0.00 46 1006.2
20210416144027 51 252 11.0 21.0 0.00 0.00 0.00 46 1006.2
20210416143523 51 319 9.0 19.0 0.00 0.00 0.00 45 1006.3
20210416143027 51 348 7.0 18.0 0.00 0.00 0.00 46 1006.3
20210416142835 51 221 7.0 17.0 0.00 0.00 0.00 46 1006.3
20210416142252 51 22 5.0 16.0 0.00 0.00 0.00 45 1006.1
20210416141545 51 335 6.0 17.0 0.00 0.00 0.00 45 1006.1
20210416141031 51 261 5.0 17.0 0.00 0.00 0.00 45 1006.1
20210416140511 51 273 8.0 16.0 0.00 0.00 0.00 45 1006.2
20210416140141 51 291 7.0 15.0 0.00 0.00 0.00 45 1006.3
20210416135943 51 292 5.0 15.0 0.00 0.00 0.00 44 1006.2
20210416135352 50 296 4.0 19.0 0.00 0.00 0.00 44 1006.3
20210416134523 50 332 10.0 19.0 0.00 0.00 0.00 44 1006.2
20210416134218 50 100 5.0 18.0 0.00 0.00 0.00 43 1006.2
20210416133618 50 17 7.0 24.0 0.00 0.00 0.00 44 1006.3
20210416133223 49 263 4.0 24.0 0.00 0.00 0.00 43 1006.4
20210416132836 49 253 7.0 18.0 0.00 0.00 0.00 42 1006.3
20210416132531 49 273 3.0 16.0 0.00 0.00 0.00 40 1006.3
20210416131051 48 318 6.0 16.0 0.00 0.00 0.00 39 1006.5
20210416130549 48 265 7.0 18.0 0.00 0.00 0.00 37 1006.5
20210416130130 48 325 6.0 18.0 0.00 0.00 0.00 35 1006.5
20210416125630 49 262 4.0 13.0 0.00 0.00 0.00 29 1006.7
20210416124556 48 289 3.0 17.0 0.00 0.00 0.00 25 1006.7
20210416124119 48 265 4.0 14.0 0.00 0.00 0.00 23 1006.7
20210416123554 47 272 5.0 14.0 0.00 0.00 0.00 23 1006.7
20210416123105 47 11 5.0 12.0 0.00 0.00 0.00 22 1006.7
20210416122419 47 346 2.0 12.0 0.00 0.00 0.00 18 1006.7
20210416121543 47 263 3.0 10.0 0.00 0.00 0.00 18 1006.6
20210416121032 46 263 4.0 11.0 0.00 0.00 0.00 18 1006.7
20210416120541 46 338 3.0 14.0 0.00 0.00 0.00 17 1006.7
20210416120054 46 267 4.0 12.0 0.00 0.00 0.00 16 1006.7
20210416115923 46 284 3.0 11.0 0.00 0.00 0.00 15 1006.7
20210416115618 46 261 3.0 9.0 0.00 0.00 0.00 14 1006.7
20210416114555 46 255 3.0 8.0 0.00 0.00 0.00 13 1006.7
20210416114031 45 315 3.0 11.0 0.00 0.00 0.00 12 1006.7
20210416113525 45 321 3.0 11.0 0.00 0.00 0.00 11 1006.6
20210416113049 45 15 4.0 10.0 0.00 0.00 0.00 10 1006.6
20210416112753 45 309 4.0 9.0 0.00 0.00 0.00 9 1006.7
20210416112200 44 290 4.0 9.0 0.00 0.00 0.00 7 1006.6
20210416111551 44 284 1.0 11.0 0.00 0.00 0.00 6 1006.6
20210416111028 44 255 3.0 9.0 0.00 0.00 0.00 5 1006.6
20210416110516 44 229 2.0 8.0 0.00 0.00 0.00 4 1006.6
20210416110041 43 266 3.0 9.0 0.00 0.00 0.00 2 1006.5
20210416105850 43 287 1.0 9.0 0.00 0.00 0.00 2 1006.5
20210416105139 43 288 2.0 8.0 0.00 0.00 0.00 3 1006.4
20210416104515 42 283 1.0 8.0 0.00 0.00 0.00 3 1006.4
20210416104031 42 260 1.0 6.0 0.00 0.00 0.00 4 1006.3
20210416103511 42 261 2.0 6.0 0.00 0.00 0.00 6 1006.3
20210416103118 42 269 2.0 6.0 0.00 0.00 0.00 6 1006.4
20210416102928 42 293 1.0 5.0 0.00 0.00 0.00 8 1006.2
20210416102705 42 289 1.0 6.0 0.00 0.00 0.00 10 1006.3
20210416101644 42 304 2.0 6.0 0.00 0.00 0.00 12 1006.3
20210416101103 42 282 1.0 4.0 0.00 0.00 0.00 14 1006.2
20210416100616 42 279 0.0 4.0 0.00 0.00 0.00 15 1006.2
20210416100243 42 284 1.0 4.0 0.00 0.00 0.00 17 1006.3
20210416095834 43 284 1.0 4.0 0.00 0.00 0.00 18 1006.4
20210416095440 43 284 0.0 7.0 0.00 0.00 0.00 19 1006.3
20210416094739 43 284 0.0 7.0 0.00 0.00 0.00 20 1006.3
20210416094053 43 317 0.0 8.0 0.00 0.00 0.00 22 1006.2
20210416093549 43 315 2.0 8.0 0.00 0.00 0.00 23 1006.2
20210416093125 43 271 1.0 6.0 0.00 0.00 0.00 25 1006.2
20210416092748 43 264 2.0 6.0 0.00 0.00 0.00 26 1006.2
20210416092140 43 291 1.0 8.0 0.00 0.00 0.00 27 1006.2
20210416091616 43 301 2.0 8.0 0.00 0.00 0.00 28 1006.2
20210416091050 43 306 2.0 5.0 0.00 0.00 0.00 29 1006.3
20210416090546 44 311 1.0 6.0 0.00 0.00 0.00 30 1006.3
20210416090139 44 321 2.0 11.0 0.00 0.00 0.00 31 1006.2
20210416085800 44 297 1.0 11.0 0.00 0.00 0.00 32 1006.2
20210416085433 44 313 3.0 9.0 0.00 0.00 0.00 33 1006.2
20210416084636 44 300 3.0 9.0 0.00 0.00 0.00 33 1006.2
20210416084043 44 307 3.0 10.0 0.00 0.00 0.00 34 1006.2
20210416083558 44 319 2.0 10.0 0.00 0.00 0.00 34 1006.2
20210416083102 44 320 2.0 8.0 0.00 0.00 0.00 36 1006.2
20210416082835 44 314 2.0 10.0 0.00 0.00 0.00 36 1006.3
20210416082222 44 279 3.0 10.0 0.00 0.00 0.00 37 1006.3
20210416081612 44 321 3.0 6.0 0.00 0.00 0.00 39 1006.4
20210416081052 44 284 2.0 6.0 0.00 0.00 0.00 40 1006.4
20210416080607 44 331 2.0 6.0 0.00 0.00 0.00 41 1006.4
20210416080221 44 279 1.0 8.0 0.00 0.00 0.00 42 1006.4
20210416075723 45 300 2.0 8.0 0.00 0.00 0.00 44 1006.5
20210416075232 45 351 1.0 8.0 0.00 0.00 0.00 45 1006.5
20210416074553 45 321 1.0 11.0 0.00 0.00 0.00 45 1006.5
20210416074034 45 311 3.0 10.0 0.00 0.00 0.00 46 1006.5
20210416073531 45 330 3.0 10.0 0.00 0.00 0.00 47 1006.5
20210416073054 45 294 5.0 12.0 0.00 0.00 0.00 47 1006.5
20210416072628 45 292 2.0 12.0 0.00 0.00 0.00 48 1006.5
20210416072132 45 291 1.0 5.0 0.00 0.00 0.00 49 1006.6
20210416071613 46 313 3.0 10.0 0.00 0.00 0.00 49 1006.6
20210416071036 46 19 4.0 11.0 0.00 0.00 0.00 50 1006.6
20210416070542 46 294 3.0 11.0 0.00 0.00 0.00 50 1006.6
20210416070059 46 327 4.0 9.0 0.00 0.00 0.00 50 1006.6
20210416065643 46 293 1.0 9.0 0.00 0.00 0.00 50 1006.7
20210416065202 46 293 0.0 12.0 0.00 0.00 0.00 51 1006.7
20210416064535 46 283 4.0 11.0 0.00 0.00 0.00 51 1006.7
20210416064035 46 293 1.0 11.0 0.00 0.00 0.00 51 1006.7
20210416063532 47 325 4.0 11.0 0.00 0.00 0.00 51 1006.7
20210416063057 47 281 2.0 10.0 0.00 0.00 0.00 51 1006.7
20210416062728 47 266 2.0 11.0 0.00 0.00 0.00 51 1006.7
20210416062229 47 292 4.0 14.0 0.00 0.00 0.00 51 1006.7
20210416061632 47 339 5.0 14.0 0.00 0.00 0.00 51 1006.7
20210416061028 47 323 4.0 14.0 0.00 0.00 0.00 51 1006.7
20210416060520 47 301 2.0 10.0 0.00 0.00 0.00 51 1006.8
20210416060038 48 313 3.0 10.0 0.00 0.00 0.00 51 1006.8
20210416055715 48 283 4.0 11.0 0.00 0.00 0.00 51 1006.9
20210416055124 48 312 4.0 11.0 0.00 0.00 0.00 51 1006.8
20210416054522 48 282 4.0 10.0 0.00 0.00 0.00 51 1006.9
20210416054025 48 317 3.0 8.0 0.00 0.00 0.00 51 1006.9
20210416053530 48 274 2.0 10.0 0.00 0.00 0.00 51 1007.0
20210416053040 49 292 2.0 10.0 0.00 0.00 0.00 51 1007.0
20210416052816 49 306 4.0 10.0 0.00 0.00 0.00 51 1006.9
20210416052246 49 337 3.0 11.0 0.00 0.00 0.00 51 1006.8
20210416051541 49 330 5.0 12.0 0.00 0.00 0.00 51 1006.7
20210416051030 49 270 5.0 12.0 0.00 0.00 0.00 51 1006.7
20210416050511 49 317 4.0 11.0 0.00 0.00 0.00 51 1006.7
20210416050128 49 323 5.0 11.0 0.00 0.00 0.00 51 1006.5
20210416045925 49 286 3.0 11.0 0.00 0.00 0.00 51 1006.6
20210416045410 49 24 4.0 11.0 0.00 0.00 0.00 51 1006.6
20210416044521 49 298 3.0 14.0 0.00 0.00 0.00 51 1006.6
20210416044023 49 292 5.0 14.0 0.00 0.00 0.00 50 1006.6
20210416043528 49 305 5.0 13.0 0.00 0.00 0.00 50 1006.5
20210416043020 49 265 3.0 10.0 0.00 0.00 0.00 50 1006.5
20210416042757 50 5 4.0 13.0 0.00 0.00 0.00 50 1006.4
20210416042241 50 297 6.0 13.0 0.00 0.00 0.00 50 1006.4